Location: Kenockee Observatory
(43.0173°N, 82.7297°W)
Time: 18:48:57
(UTC-04:00)

Daily predictions for brighter satellites

Satellite Brightness Start Highest point End
(mag) Time Altitude Azimuth Time Altitude Azimuth Time Altitude Azimuth
CZ-3B R/B 4.4 21:33:10 10° S 21:35:54 36° ESE 21:43:25 10° NE
Cosmos 2173 Rocket 4.2 21:38:55 10° N 21:45:02 60° E 21:51:11 10° SSE
Lacrosse 5 2.0 21:41:15 10° NW 21:46:20 73° NE 21:51:23 10° SE
Cosmos 1818 4.2 21:41:24 10° NW 21:46:43 55° WSW 21:51:59 10° SSE
SPOT 5 4.1 21:45:48 10° SE 21:50:03 30° ENE 21:54:30 10° N
Cosmos 2061 Rocket 4.2 21:45:27 10° N 21:51:49 63° E 21:58:11 10° SSE
Abrixas rocket 2.4 21:50:25 10° WNW 21:53:38 65° NNE 21:56:52 10° ESE
Cosmos 1408 Rocket 3.9 21:51:36 10° SSE 21:55:43 46° E 21:59:53 10° NNE
YAOGAN 6 2.7 21:53:37 10° SSE 21:57:16 85° WSW 22:01:00 10° NNW
Cosmos 2221 3.0 21:54:19 10° NNW 21:58:41 65° W 22:03:01 10° S
BREEZE-M DEB (TANK) 3.1 21:57:59 10° W 21:59:52 34° N 22:03:19 10° ENE
Cosmos 2227 4.2 21:56:25 10° SSW 22:02:06 68° ESE 22:07:46 10° NNE
Envisat 4.0 21:57:30 10° S 22:02:22 45° W 22:07:14 10° NNW
Cosmos 1626 4.3 22:04:19 10° E 22:05:05 11° E 22:05:51 10° ENE
Meteor 1-29 3.2 22:02:06 10° N 22:05:33 75° WNW 22:08:59 10° SSW
Cosmos 1814 Rocket 4.4 22:01:23 10° N 22:06:37 52° ENE 22:11:33 11° SE
Cosmos 1726 2.5 22:03:50 10° N 22:07:23 45° ENE 22:10:46 11° SSE
Cosmos 1725 Rocket 4.4 22:04:17 10° N 22:10:19 48° ENE 22:16:09 11° SSE
Cosmos 1763 Rocket 4.0 22:07:12 10° N 22:12:06 45° ENE 22:16:28 12° SE
Cosmos 841 Rocket 4.4 22:07:23 10° N 22:12:14 36° ENE 22:16:35 12° SE
Cosmos 332 Rocket 3.9 22:10:11 10° NNW 22:15:06 72° ENE 22:19:41 12° SSE
Terra 3.6 22:12:03 10° ESE 22:15:13 18° ENE 22:18:24 10° NNE
Cosmos 1802 Rocket 4.0 22:09:20 10° N 22:15:31 88° E 22:21:41 10° S
Tiangong 1 0.7 22:13:13 10° W 22:16:02 76° S 22:18:28 13° ESE
Cosmos 2263 Rocket 2.9 22:12:38 10° SSE 22:17:28 32° ESE 22:22:21 10° NE
ATLAS 5 CENTAUR R/B 3.6 22:13:05 10° WSW 22:17:29 37° NW 22:22:17 10° NNE
Cosmos 1486 Rocket 4.5 22:12:54 10° S 22:17:49 41° ESE 22:22:47 10° NNE
Helios 1B rocket 3.6 22:14:52 10° N 22:18:50 46° WNW 22:22:48 10° SW
Abrixas 2.8 22:18:44 10° SW 22:21:15 34° SE 22:23:45 10° ENE
Cosmos 1300 2.9 22:19:26 10° N 22:23:13 56° E 22:26:18 14° SSE
USA 234 3.6 22:28:25 10° ENE 22:34:35 42° SE 22:40:42 10° SSW
Cosmos 1766 Rocket 4.1 22:30:47 10° SSW 22:35:03 60° W 22:39:23 10° N
Cosmos 2016 Rocket 4.1 22:30:16 10° N 22:36:31 77° W 22:42:39 10° S
Cosmos 1328 Rocket 3.5 22:32:15 10° N 22:36:36 79° E 22:40:04 15° SSE
Cosmos 1151 Rocket 3.6 22:32:31 10° N 22:36:43 43° ENE 22:39:31 19° SE
SPOT 1/Viking Rocket 3.7 22:33:04 16° SSE 22:37:09 59° ENE 22:42:13 10° N
SL-14 R/B 3.2 22:36:14 10° S 22:40:11 81° E 22:44:08 10° N
Cosmos 1515 Rocket 3.5 22:40:40 10° N 22:45:00 70° E 22:48:00 19° SSE
CZ-4C R/B 3.5 22:46:15 17° ESE 22:47:01 17° ESE 22:50:31 10° ENE
ERS-1 Rocket 3.8 22:42:25 10° S 22:47:15 46° W 22:52:06 10° NNW
H-2A R/B 3.4 22:47:34 17° ESE 22:49:48 26° ENE 22:53:18 10° N
EO 1 Delta rocket 3.8 22:47:12 17° SSE 22:50:46 83° E 22:55:30 10° N
Cosmos 1743 Rocket 3.5 22:46:32 10° S 22:50:47 90° WNW 22:55:07 10° N
Cosmos 1603 4.4 22:45:28 10° NW 22:50:53 48° WSW 22:55:40 13° S
USA 245 3.5 22:48:40 18° S 22:51:19 69° W 22:55:49 10° NNW
RESURS DK-1 3.7 22:47:37 10° NW 22:51:25 34° WSW 22:54:38 13° S
ARGOS 3.3 22:46:39 13° S 22:51:27 72° WSW 22:56:53 10° NNW
Cosmos 2058 3.2 22:50:47 21° SSE 22:53:19 50° E 22:57:25 10° NNE
Cosmos 1328 4.0 22:49:43 10° SSW 22:53:44 72° W 22:57:47 10° N
Cosmos 1455 3.3 22:52:29 10° NNE 22:55:55 29° ENE 22:57:20 23° ESE
Cosmos 2233 Rocket 4.0 22:53:36 10° N 22:59:49 72° E 23:04:08 21° SSE
Nimbus 7 Rocket 4.4 22:56:46 10° NNE 23:02:48 82° ESE 23:08:45 10° SSW
Cosmos 2228 Rocket 3.6 22:59:15 10° NNW 23:03:46 58° W 23:07:16 16° S
Cosmos 371 Rocket 4.0 22:59:17 10° NNW 23:03:55 48° WSW 23:07:23 17° S
Cosmos 1943 3.3 22:58:17 10° NNW 23:03:56 76° WSW 23:07:41 22° SSE
Cosmos 1503 Rocket 4.1 23:00:28 17° S 23:04:17 55° ESE 23:09:20 10° NNE
Cosmos 540 Rocket 3.9 23:00:41 10° N 23:05:42 50° ENE 23:08:29 25° SE
ERBS 4.0 23:14:57 10° WNW 23:17:40 22° SW 23:18:29 20° SSW
H-2A R/B 2.5 23:17:23 20° S 23:21:07 60° W 23:26:30 10° NNW
Cosmos 1869 4.3 23:21:07 10° N 23:24:42 32° ENE 23:25:35 29° ESE
SPOT 5 4.2 23:24:13 14° SSW 23:27:59 34° W 23:32:39 10° NNW
Lacrosse 5 3.7 23:25:10 10° WNW 23:28:49 20° WSW 23:31:05 15° SSW
Sich 1 3.8 23:28:52 31° ESE 23:29:37 33° E 23:33:29 10° NNE
H-2A ROCKET BODY 4.0 23:25:08 10° SSW 23:29:49 28° SSE 23:44:43 10° E
Abrixas rocket 3.8 23:27:33 10° W 23:29:56 22° SW 23:29:56 22° SW
Cosmos 2151 3.7 23:27:50 16° SSW 23:31:04 52° WNW 23:35:17 10° N
Landsat 7 4.3 23:35:07 26° SSW 23:37:36 54° W 23:42:17 10° NNW
Cosmos 1626 2.9 23:38:04 25° SW 23:39:56 49° W 23:43:35 10° N
Cosmos 1703 3.9 23:39:14 24° SSW 23:41:23 52° W 23:45:18 10° N
CZ-4C R/B 4.3 23:40:17 33° ESE 23:41:31 42° ENE 23:45:43 10° N
SL-19 R/B 4.1 23:36:11 10° NNE 23:41:35 77° ESE 23:44:40 28° S
Cosmos 1707 Rocket 3.6 23:42:35 10° N 23:47:05 69° E 23:48:18 45° SSE
deb Chang Zheng 4 3.5 23:43:25 10° NNE 23:47:49 79° ESE 23:49:17 42° S
Cosmos 1354 Rocket 4.5 23:45:33 12° SW 23:50:16 59° WNW 23:55:27 10° NNE
Cosmos 2278 Rocket 3.9 23:51:08 16° E 23:51:08 16° E 23:54:26 10° ENE
Tiangong 1 3.4 23:49:01 10° W 23:49:35 14° WSW 23:49:35 14° WSW
Terra 2.2 23:50:32 32° SSW 23:52:32 55° W 23:57:13 10° NNW
ALOS 2 4.5 23:52:39 17° E 23:54:00 19° ENE 23:57:06 10° NNE
Abrixas 3.7 23:53:25 10° W 23:56:00 38° NNW 23:57:27 20° NE
